sat.trackr.live / text

‹ back to catalog

HULIANWANG DIGUI-125

NORAD 67065 · 2025-295G

PAYLOAD ACTIVE UNKNOWN

§ Identity

Operator
Country
PRC
Launch date
2025-12-11
Launch site
WSC
Launch vehicle
Mass (kg)
RCS (m²)

External: N2YO · Heavens-Above · Gunter

§ Orbital elements

Epoch: 2026-09-20T15:49:30.515808Z

Period
108.33 min
Inclination
49.9999°
Eccentricity
0.0000717
Mean motion
13.29326006 rev/d
Perigee alt
1,148.8 km
Apogee alt
1,149.8 km
Semi-major
7,527.4 km
B*
3.3055e-5
RAAN
42.8065°
Arg perigee
82.7894°
Mean anomaly
277.3059°
Rev number
3,820

§ Raw data

HULIANWANG DIGUI-1251 67065U 25295G   26263.65938097 -.00000109  00000+0  33055-4 0  99932 67065  49.9999  42.8065 0000717  82.7894 277.3059 13.29326006 38201

JSON: /api/v1/satellites/67065 · /tle

For live sub-satellite position, see the globe view (requires WebGL).

§ Visibility from observer

Set your observer location to see the next 7 days of passes ≥ 10°. The values pass through the URL so the page stays shareable.

No JS? Fill the form by hand. The geolocation button needs JavaScript.